When you browse on this site, cookies collect data to enhance your experience and personalize the content and advertising you see.
Visit our Privacy Policy to learn more. By continuing to use the site, you agree to this use of cookies and data.
  • In Slovakia
  • List of Countries
  • For 7 days
  • Water Temperature
  • Satellite Maps
  • Weather Map
  • Weather Widgets
  • user-avatar
    Login

    Hourly Weather Pavlovskiy

    Today, 19 November, Monday

    Time Temperature Precipitation Wind Pressure Humidity
    00:00 -2°C° 0 mm 2 mps 748 mmHg 96%
    01:00 -2°C° 0 mm 2 mps 748 mmHg 96%
    02:00 -2°C° 0 mm 2 mps 748 mmHg 96%
    03:00 -2°C° 0 mm 2 mps 748 mmHg 97%
    04:00 -2°C° 0.1 mm 2 mps 749 mmHg 97%
    05:00 -2°C° 0.1 mm 2 mps 749 mmHg 97%
    06:00 -2°C° 0.1 mm 2 mps 749 mmHg 97%
    07:00 -2°C° 0.1 mm 2 mps 749 mmHg 96%
    08:00 -1°C° 0.1 mm 2 mps 749 mmHg 96%
    09:00 -1°C° 0.1 mm 2 mps 749 mmHg 95%
    10:00 -1°C° 0.1 mm 3 mps 750 mmHg 94%
    11:00 -1°C° 0.1 mm 3 mps 750 mmHg 94%
    12:00 0°C° 0.1 mm 3 mps 750 mmHg 93%
    13:00 -1°C° 0.1 mm 3 mps 751 mmHg 93%
    14:00 -1°C° 0.1 mm 3 mps 751 mmHg 93%
    15:00 -1°C° 0.1 mm 3 mps 751 mmHg 94%
    16:00 -1°C° 0.1 mm 3 mps 751 mmHg 94%
    17:00 -1°C° 0.1 mm 3 mps 751 mmHg 94%
    18:00 -1°C° 0.1 mm 3 mps 751 mmHg 94%
    19:00 -2°C° 0.1 mm 3 mps 751 mmHg 94%
    20:00 -2°C° 0.1 mm 3 mps 751 mmHg 94%
    21:00 -2°C° 0.1 mm 3 mps 751 mmHg 93%
    22:00 -2°C° 0 mm 3 mps 752 mmHg 93%
    23:00 -4°C° 0 mm 3 mps 752 mmHg 92%

    Tomorrow, 20 November, Tuesday

    Time Temperature Precipitation Wind Pressure Humidity
    00:00 -4°C° 0 mm 3 mps 752 mmHg 91%
    01:00 -4°C° 0 mm 3 mps 752 mmHg 91%
    02:00 -5°C° 0 mm 3 mps 751 mmHg 90%
    03:00 -5°C° 0 mm 3 mps 751 mmHg 90%
    04:00 -5°C° 0 mm 3 mps 751 mmHg 90%
    05:00 -5°C° 0 mm 3 mps 751 mmHg 89%
    06:00 -5°C° 0 mm 3 mps 751 mmHg 89%
    07:00 -4°C° 0 mm 2 mps 751 mmHg 88%
    08:00 -4°C° 0 mm 2 mps 751 mmHg 87%
    09:00 -4°C° 0 mm 2 mps 751 mmHg 86%
    10:00 -4°C° 0 mm 2 mps 750 mmHg 84%
    11:00 -4°C° 0 mm 2 mps 750 mmHg 82%
    12:00 -4°C° 0 mm 2 mps 750 mmHg 80%
    13:00 -4°C° 0 mm 2 mps 749 mmHg 82%
    14:00 -4°C° 0 mm 2 mps 749 mmHg 83%
    15:00 -4°C° 0 mm 2 mps 749 mmHg 84%
    16:00 -5°C° 0.1 mm 3 mps 748 mmHg 85%
    17:00 -5°C° 0.1 mm 3 mps 747 mmHg 86%
    18:00 -5°C° 0.1 mm 3 mps 747 mmHg 87%
    19:00 -5°C° 0.1 mm 3 mps 746 mmHg 88%
    20:00 -5°C° 0.1 mm 4 mps 746 mmHg 89%
    21:00 -5°C° 0.1 mm 4 mps 745 mmHg 89%
    22:00 -5°C° 0.1 mm 4 mps 745 mmHg 89%
    23:00 -5°C° 0.1 mm 4 mps 744 mmHg 88%

    Day after tomorrow, 21 November, Wednesday

    Time Temperature Precipitation Wind Pressure Humidity
    00:00 -6°C° 0.1 mm 5 mps 744 mmHg 88%
    01:00 -6°C° 0 mm 5 mps 743 mmHg 87%
    02:00 -6°C° 0 mm 5 mps 743 mmHg 86%
    03:00 -6°C° 0 mm 5 mps 742 mmHg 85%
    04:00 -6°C° 0 mm 5 mps 742 mmHg 85%
    05:00 -6°C° 0 mm 5 mps 741 mmHg 85%
    06:00 -6°C° 0 mm 5 mps 741 mmHg 86%
    07:00 -6°C° 0.2 mm 5 mps 741 mmHg 85%
    08:00 -5°C° 0.2 mm 5 mps 740 mmHg 85%
    09:00 -5°C° 0.2 mm 5 mps 740 mmHg 85%
    10:00 -5°C° 0 mm 6 mps 740 mmHg 82%
    11:00 -4°C° 0 mm 6 mps 740 mmHg 80%
    12:00 -4°C° 0 mm 6 mps 740 mmHg 78%
    13:00 -5°C° 0 mm 6 mps 740 mmHg 75%
    14:00 -6°C° 0 mm 6 mps 740 mmHg 73%
    15:00 -6°C° 0 mm 6 mps 741 mmHg 71%
    16:00 -8°C° 0 mm 6 mps 741 mmHg 73%
    17:00 -9°C° 0 mm 6 mps 741 mmHg 74%
    18:00 -8°C° 0 mm 5 mps 741 mmHg 75%
    19:00 -8°C° 0 mm 5 mps 741 mmHg 76%
    20:00 -8°C° 0 mm 5 mps 741 mmHg 77%
    21:00 -10°C° 0 mm 5 mps 741 mmHg 77%
    22:00 -9°C° 0 mm 4 mps 741 mmHg 80%
    23:00 -9°C° 0 mm 4 mps 741 mmHg 82%

    22 November, Thursday

    Time Temperature Precipitation Wind Pressure Humidity
    00:00 -9°C° 0 mm 4 mps 741 mmHg 85%
    01:00 -9°C° 0 mm 4 mps 740 mmHg 86%
    02:00 -9°C° 0 mm 4 mps 740 mmHg 88%
    03:00 -9°C° 0 mm 4 mps 740 mmHg 89%
    04:00 -10°C° 0 mm 5 mps 739 mmHg 89%
    05:00 -10°C° 0 mm 5 mps 738 mmHg 89%
    06:00 -10°C° 0 mm 6 mps 737 mmHg 89%
    07:00 -9°C° 0.3 mm 6 mps 736 mmHg 89%
    08:00 -9°C° 0.3 mm 7 mps 735 mmHg 88%
    09:00 -8°C° 0.3 mm 8 mps 734 mmHg 88%
    10:00 -8°C° 0.4 mm 8 mps 734 mmHg 87%
    11:00 -7°C° 0.4 mm 8 mps 733 mmHg 87%
    12:00 -7°C° 0.4 mm 7 mps 733 mmHg 86%
    13:00 -7°C° 0.4 mm 7 mps 733 mmHg 84%
    14:00 -6°C° 0.4 mm 6 mps 733 mmHg 83%
    15:00 -6°C° 0.4 mm 6 mps 733 mmHg 81%
    16:00 -7°C° 0 mm 5 mps 733 mmHg 82%
    17:00 -9°C° 0 mm 4 mps 733 mmHg 83%
    18:00 -9°C° 0 mm 3 mps 734 mmHg 84%
    19:00 -9°C° 0 mm 3 mps 734 mmHg 85%
    20:00 -9°C° 0 mm 3 mps 735 mmHg 86%
    21:00 -9°C° 0 mm 3 mps 736 mmHg 87%
    22:00 -10°C° 0 mm 3 mps 736 mmHg 88%
    23:00 -10°C° 0 mm 3 mps 737 mmHg 89%

    23 November, Friday

    Time Temperature Precipitation Wind Pressure Humidity
    00:00 -12°C° 0 mm 3 mps 737 mmHg 90%
    01:00 -12°C° 0 mm 4 mps 738 mmHg 90%
    02:00 -12°C° 0 mm 4 mps 738 mmHg 90%
    03:00 -12°C° 0 mm 4 mps 738 mmHg 90%
    04:00 -12°C° 0 mm 4 mps 739 mmHg 88%
    05:00 -13°C° 0 mm 5 mps 740 mmHg 86%
    06:00 -12°C° 0 mm 5 mps 740 mmHg 84%
    07:00 -13°C° 0 mm 5 mps 741 mmHg 82%
    08:00 -14°C° 0 mm 6 mps 742 mmHg 81%
    09:00 -14°C° 0 mm 6 mps 742 mmHg 79%
    10:00 -14°C° 0 mm 6 mps 743 mmHg 77%
    11:00 -13°C° 0 mm 5 mps 743 mmHg 75%
    12:00 -13°C° 0 mm 5 mps 744 mmHg 73%
    13:00 -13°C° 0 mm 5 mps 744 mmHg 77%
    14:00 -11°C° 0 mm 4 mps 744 mmHg 80%
    15:00 -11°C° 0 mm 4 mps 744 mmHg 84%
    16:00 -11°C° 0 mm 4 mps 744 mmHg 83%
    17:00 -12°C° 0 mm 5 mps 744 mmHg 82%
    18:00 -11°C° 0 mm 5 mps 744 mmHg 80%
    19:00 -11°C° 0 mm 5 mps 744 mmHg 81%
    20:00 -12°C° 0 mm 5 mps 743 mmHg 82%
    21:00 -12°C° 0 mm 5 mps 743 mmHg 82%
    22:00 -12°C° 0 mm 5 mps 742 mmHg 84%
    23:00 -12°C° 0 mm 6 mps 742 mmHg 86%

    24 November, Saturday

    Time Temperature Precipitation Wind Pressure Humidity
    00:00 -12°C° 0 mm 6 mps 741 mmHg 89%
    01:00 -11°C° 0 mm 6 mps 741 mmHg 88%
    02:00 -11°C° 0 mm 7 mps 740 mmHg 88%
    03:00 -11°C° 0 mm 7 mps 739 mmHg 88%
    04:00 -9°C° 0.1 mm 7 mps 738 mmHg 87%
    05:00 -9°C° 0.1 mm 7 mps 737 mmHg 85%
    06:00 -8°C° 0.1 mm 7 mps 737 mmHg 84%
    07:00 -8°C° 0.1 mm 7 mps 736 mmHg 84%
    08:00 -7°C° 0.1 mm 8 mps 736 mmHg 83%
    09:00 -6°C° 0.1 mm 8 mps 735 mmHg 82%
    10:00 -6°C° 0.1 mm 8 mps 735 mmHg 82%
    11:00 -5°C° 0.1 mm 8 mps 736 mmHg 81%
    12:00 -5°C° 0.1 mm 8 mps 736 mmHg 80%
    13:00 -4°C° 0 mm 7 mps 736 mmHg 80%
    14:00 -4°C° 0 mm 7 mps 736 mmHg 80%
    15:00 -4°C° 0 mm 6 mps 736 mmHg 80%
    16:00 -4°C° 0 mm 6 mps 737 mmHg 81%
    17:00 -4°C° 0 mm 6 mps 737 mmHg 82%
    18:00 -5°C° 0 mm 6 mps 737 mmHg 83%
    19:00 -5°C° 0.1 mm 6 mps 738 mmHg 83%
    20:00 -5°C° 0.1 mm 6 mps 738 mmHg 84%
    21:00 -5°C° 0.1 mm 5 mps 738 mmHg 85%
    22:00 -5°C° 0.1 mm 5 mps 738 mmHg 85%
    23:00 -5°C° 0.1 mm 5 mps 738 mmHg 86%
    Show more